Miscellaneous Hydrologic Data Report
Issued by NWS (Baltimore/Washington) Sterling, VA
1 of 27 available versions  First Miscellaneous Hydrologic Data Report Previous Miscellaneous Hydrologic Data Report  Print this page Close this Window


000
ASUS41 KLWX 300611
RWRLWX

REGIONAL WEATHER ROUNDUP
NATIONAL WEATHER SERVICE BALTIMORE MD/WASHINGTON DC
200 AM EDT THU MAR 30 2017

Note: "FAIR" indicates few or no clouds below 12,000 feet
with no significant weather and/or obstructions to visibility.
 TC=TEMPERATURE CELSIUS

 * =Non NWS site. Station does not report precipitation (e.g. rain,
    snow, etc.), thunder, or fog.

DCZ001-MDZ009-015-VAZ040>042-051-053>054-300700-
WASHINGTON METRO

CITY           SKY/WX    TMP DP  RH WIND       PRES   REMARKS
WASHINGTON NAT PTCLDY    51  32  48 NE8       30.21R
DULLES         CLEAR     47  32  56 NE3       30.20R
ANDREWS AFB    CLEAR     47  29  51 NE6       30.18S
FT BELVOIR     CLEAR     50  29  45 CALM      30.20R
QUANTICO       CLEAR     52  36  54 E8        30.21R
COLLEGE PARK*  CLEAR     46  30  53 CALM      30.20R
LEESBURG*      CLEAR     50  34  53 NE3       30.21S

$$

MDZ006>007-011-014-300700-
BALTIMORE METRO

CITY           SKY/WX    TMP DP  RH WIND       PRES   REMARKS
BWI AIRPORT    CLEAR     47  28  47 NE9       30.19F
MD SCIENCE CTR   N/A     49  25  39 MISG      30.21S
MARTIN STATE   CLEAR     46  32  57 N5        30.22S
ANNAPOLIS      CLEAR     50  30  46 NE7       30.19R
FORT MEADE*    CLEAR     41  30  65 NE3       30.22S

$$

MDZ012-015-019>023-300700-
MARYLAND EASTERN SHORE

CITY           SKY/WX    TMP DP  RH WIND       PRES   REMARKS
OCEAN CITY     CLEAR     46  34  62 NE9       30.18F
SALISBURY      CLEAR     42  33  70 E6        30.18S
BAY BRIDGE AP* CLEAR     46  30  53 E5        30.19F
CAMBRIDGE*     CLEAR     48  28  46 NE3       30.19S
EASTON*        CLEAR     45  29  52 E8        30.22S

$$

MDZ017>025-300700-
SOUTHERN MARYLAND

CITY           SKY/WX    TMP DP  RH WIND       PRES   REMARKS
PATUXENT RIVER CLEAR     47  37  68 NE8       30.20R
ST INIGOES     NOT AVBL
LEONARDTOWN*   CLEAR     43  34  70 CALM      30.21R

$$

MDZ003>005-300700-
NORTH CENTRAL MARYLAND

CITY           SKY/WX    TMP DP  RH WIND       PRES   REMARKS
FREDERICK*     CLEAR     39  39 100 CALM      30.23S
HAGERSTOWN APT CLEAR     44  29  55 E7        30.19R
WESTMINSTER*   CLEAR     43  30  61 NE3       30.19S

$$

MDZ501>502-300700-
WESTERN MARYLAND

CITY           SKY/WX    TMP DP  RH WIND       PRES   REMARKS
OAKLAND*       CLOUDY    39  30  70 SE17G25   30.08F
CUMBERLAND*    CLEAR     50  32  50 CALM      30.20F

$$

VAZ025>031-300700-
SHENANDOAH VALLEY

CITY           SKY/WX    TMP DP  RH WIND       PRES   REMARKS
WINCHESTER*    CLEAR     37  34  87 CALM      30.20R
FRONT ROYAL*   NOT AVBL
LURAY*         CLOUDY    46  41  81 N6        30.17S
NEW MARKET*    NOT AVBL
STAUNTON*      CLOUDY    50  40  70 CALM      30.17S
WAYNESBORO*    NOT AVBL

$$

WVZ021-048>050-054>055-300700-
EASTERN WEST VIRGINIA PANHANDLE

CITY           SKY/WX    TMP DP  RH WIND       PRES   REMARKS
MARTINSBURG    CLEAR     40  33  76 S3        30.19R
PETERSBURG*    CLEAR     41  38  87 W3        30.16F

$$

VAZ036>039-050-300700-
CENTRAL FOOTHILLS

CITY           SKY/WX    TMP DP  RH WIND       PRES   REMARKS
CHARLOTTESVILL MOCLDY    53  36  52 NE6       30.18R
CULPEPER*      MOCLDY    44  40  85 N3        30.20F
ORANGE*        PTCLDY    45  37  76 CALM      30.21R
GORDONSVILLE*  NOT AVBL
WARRENTON*     CLEAR     40  35  80 CALM      30.19S

$$

VAZ055>057-300700-
NORTH AND CENTRAL PIEDMONT

CITY           SKY/WX    TMP DP  RH WIND       PRES   REMARKS
FREDERICKSBRG* CLEAR     49  38  65 NE7       30.18F
STAFFORD*      CLEAR     45  35  68 CALM      30.23S

$$

NCZ024-NYZ072-PAZ021-071-VAZ022-071-300700-
OTHER REGIONAL OBSERVATIONS

CITY           SKY/WX    TMP DP  RH WIND       PRES   REMARKS
NEW YORK CITY  CLEAR     41  22  46 NE13      30.23F
PHILADELPHIA   PTCLDY    43  25  49 N14       30.21F
PITTSBURGH     PTCLDY    46  30  53 NE6       30.11S
ROANOKE        CLOUDY    60  41  49 SE14      30.15S
RICHMOND       PTCLDY    46  42  86 CALM      30.17S
RALEIGH        MOCLDY    58  52  80 SE10G17   30.13R

$$

ANZ530>537-300700-
MARINE OBSERVATIONS

STATION/POSITION TIME  TEMP    WIND        PRES
                       AIR SEA DIR/SP/G
                 (UTC) (F)     (DEG/KT/KT) (MB)
THOMAS PT LIGHT  0600   49 47   50/  9/ 10   N/A
BALT KEY BRIDGE  0548   49      50/ 11/ 13 1022.6F
COVE POINT       0548   50      80/  6/  7 1022.9R
LEWISETTA        0548   52 54   90/  7/  9 1021.9R
SOLOMONS ISLAND  0548   51 49   70/  4/  6   N/A
PINEY POINT      0548           80/  4/  5   N/A

$$



Close this window


The National Weather Service prepares its forecasts and other services in collaboration with agencies like the US Geological Survey, US Bureau of Reclamation, US Army Corps of Engineers, Natural Resource Conservation Service, National Park Service, ALERT Users Group, Bureau of Indian Affairs, and many state and local emergency managers across the country. For details, please click here.

National Weather Service
(Baltimore/Washington) Sterling Weather Forecast Office
43858 Weather Service Rd.
Sterling, VA 20166
(703) 996-2200
Page last modified: 30-Mar-2017 6:11 AM
Disclaimer
Credits
Glossary
Privacy Policy
About Us
Career Opportunities